[[{"header":{"parameterUnit":"m.s-1","parameterCategory":1,"la1":30.2991,"la2":30.254,"lo1":-89.0895,"lo2":-89.0444,"dy":0.0017,"dx":0.0017,"nx":28,"ny":28,"refTime":"2023-07-18T09:00:00:Z","depth":0,"parameterNumber":2,"parameterNumberName":"U-component_of_WINDS"},"data":[0,0,0,0,0,0,0,0,0,0,0,0,0,0,0,0,0,0,0,0,0,0,0,0,0,0,0,0,0,0,0,0,0,0,0,0,0,0,0,0,0,0,0,0,0,0,0,0,0,0,0,0,0,0,0,0,0,0,1.017,1.0169,0,1.0075,1.0074,1.0073,0.9915,0.9912,0.9909,0.9907,0.9814,0.9814,0.9815,0,0,0,0,0,0,0,0,0,0,0,0,0,1.0217,1.0217,1.017,1.0169,1.0168,1.0075,1.0074,1.0073,0.9916,0.9912,0.9909,0.9905,0.9814,0.9814,0.9815,0,0,0,0,0,0,0,0,0,0,0,0,0,1.0168,1.0217,1.017,1.0078,1.0069,1.0076,1.0074,1.0072,0.9916,0.9912,0.9908,0.9904,0.9814,0.9814,0.9815,0.9905,0,0,0.9816,0.9816,0,0,0,0,0,0,0,0,1.0171,1.0166,1.0093,1.0084,1.0074,1.0002,1.0057,1.0017,0.9918,0.9975,0.9907,0.9901,0.9881,0.9875,0.9867,0.9901,0.9897,0.9816,0.9816,0.9816,0.9816,0,0,0,0,0,0,0,1.0174,1.0169,1.0132,1.0092,1.008,1.0042,1.003,1.0048,0.9954,0.9969,0.9957,0.9948,0.9875,0.9867,0.9864,0.9895,0.9816,0.9816,0.9816,0.9817,0.9997,1.0001,0,0,0,0,0,0,1.0191,1.0173,1.0135,1.013,1.0112,1.0045,1.0032,1.003,0.9953,0.9937,0.9952,0.9941,0.9869,0.9864,0.986,0.996,0.9816,0.9817,0.9817,0.9993,0.9998,1.0003,0,0,0,0,0,0,1.0192,1.0189,1.0139,1.0148,1.0139,1.0049,1.0048,1.003,1.0023,0.994,0.9922,0.9962,0.9865,0.9859,0.9894,0.9954,0.9817,0.9817,0.9987,0.9994,1.0001,1.0162,0,0,0,0,0,0,1.0194,1.019,1.0223,1.015,1.0139,1.0175,1.0052,1.0032,1.0023,1.0008,0.9944,0.993,0.9861,0.9895,0.9895,0.9953,0.9818,0.9981,0.999,0.9998,1.015,1.0173,1.0192,0,0,0,0,0,1.0197,1.0274,1.0226,1.0222,1.0178,1.0179,1.0173,1.0091,1.0029,1.0061,1.0008,0.9932,0.9948,0.99,0.9898,0.9957,0.9977,0.9988,0.9998,1.0141,1.0169,1.0192,0,0,0,0,0,0,1.0358,1.0262,1.0208,1.0264,1.023,1.0152,1.0191,1.0123,1.0108,1.0095,0.9995,0.9982,1.003,0.9997,0.9945,1.004,0.9951,0.9961,1.006,1.0085,1.0106,1.0113,0.9818,0,0,0,0,0,1.04,1.0408,1.0324,1.0381,1.0367,1.0282,1.0279,1.0219,1.0181,1.0167,1.0116,1.0083,1.008,1.0081,1.0074,1.0145,1.0128,1.0184,1.0205,1.0223,1.0234,1.0267,1.0291,1.0037,1.0037,1.0036,0,0,1.0487,1.0436,1.0447,1.0412,1.0379,1.039,1.0271,1.0288,1.0295,1.017,1.0199,1.0161,1.0117,1.017,1.0191,1.0144,1.03,1.0236,1.0251,1.0251,1.028,1.0305,1.0326,1.0044,1.0042,1.0041,0,0,1.0651,1.0613,1.0655,1.0624,1.0575,1.0518,1.0529,1.046,1.043,1.0457,1.0363,1.037,1.0368,1.0341,1.0327,1.0479,1.0408,1.048,1.059,1.0624,1.0644,1.0661,1.0715,1.0736,1.049,1.0491,1.0491,0,1.0765,1.0777,1.0686,1.0708,1.0696,1.0581,1.0623,1.0598,1.0551,1.0545,1.0493,1.0486,1.045,1.0494,1.0531,1.0524,1.0533,1.0487,1.0648,1.0664,1.0679,1.073,1.075,1.05,1.0499,1.0498,1.0497,0,1.092,1.0929,1.0969,1.0924,1.0916,1.0949,1.0864,1.0867,1.0808,1.0757,1.0786,1.0737,1.0718,1.0724,1.0667,1.076,1.0732,1.0666,1.0574,1.0714,1.076,1.0778,1.0513,1.0509,1.0507,1.0505,0,0,1.1183,1.1086,1.1103,1.108,1.1017,1.1023,1.1051,1.103,1.1035,1.1006,1.1026,1.1026,1.0963,1.0948,1.0886,1.0917,1.104,1.0845,1.0843,1.0883,1.1139,1.119,1.1213,1.0992,1.0995,1.0998,1.1142,0,1.1334,1.1373,1.1292,1.1352,1.136,1.125,1.1274,1.1239,1.1191,1.1191,1.1139,1.1141,1.1058,1.1048,1.1073,1.102,1.109,1.1008,1.1011,1.1012,1.1025,1.1237,1.1291,1.143,1.116,1.1163,1.1165,0,1.1514,1.1492,1.1553,1.1485,1.1485,1.1508,1.1482,1.1483,1.1441,1.1404,1.1386,1.1313,1.1336,1.1247,1.1277,1.1223,1.122,1.1194,1.1197,1.1194,1.1097,1.124,1.1472,1.1493,1.1192,1.119,1.1188,0,1.17,1.1686,1.1719,1.1704,1.1626,1.1644,1.1613,1.1566,1.1559,1.1537,1.1531,1.1513,1.1503,1.149,1.1415,1.1357,1.1454,1.1359,1.1424,1.1427,1.145,1.145,1.1685,1.1448,1.1448,1.1448,1.1447,0,1.1876,1.1917,1.1801,1.1822,1.1865,1.1772,1.1817,1.1775,1.1734,1.1745,1.165,1.1663,1.1562,1.1564,1.1505,1.1539,1.1535,1.1507,1.1491,1.1515,1.1519,1.1511,1.15,1.1453,1.1452,1.1451,1.145,0,1.2091,1.2015,1.2044,1.1967,1.1949,1.1984,1.1919,1.1935,1.1882,1.1897,1.1895,1.1812,1.1809,1.1732,1.1714,1.1674,1.1732,1.1698,1.1746,1.1735,1.1805,1.1799,1.2043,1.207,1.1818,1.182,1.1822,0,1.2208,1.2237,1.2163,1.2163,1.2135,1.2137,1.2128,1.2038,1.2033,1.1986,1.2009,1.1998,1.1984,1.1985,1.1923,1.1909,1.1874,1.196,1.1871,1.1894,1.1874,1.1874,1.1876,1.1979,1.1982,1.1985,1.1987,0,1.2424,1.2385,1.2375,1.2353,1.2345,1.2324,1.2296,1.2302,1.2203,1.2202,1.2197,1.2187,1.2167,1.2158,1.2131,1.2099,1.2028,1.2016,1.203,1.2055,1.2082,1.2068,1.1797,1.201,1.2008,1.2006,1.2005,1.2004,1.2593,1.2613,1.2563,1.2556,1.2526,1.2502,1.2513,1.246,1.2455,1.243,1.2378,1.2381,1.2337,1.2294,1.2269,1.2271,1.2227,1.2248,1.2253,1.226,1.2273,1.2082,1.2266,1.2265,1.2264,1.2264,1.2263,0,1.2803,1.2766,1.276,1.2724,1.2718,1.2649,1.2615,1.2615,1.2619,1.2584,1.2572,1.2566,1.2557,1.2494,1.2477,1.249,1.2457,1.2489,1.2487,1.2481,1.2314,1.2303,1.2516,1.2516,1.2516,1.2516,1.2516,1.2516,1.2912,1.2942,1.2897,1.2911,1.2873,1.2875,1.2862,1.2839,1.281,1.2808,1.2799,1.2757,1.2711,1.269,1.2678,1.2659,1.2658,1.2701,1.2672,1.2517,1.2493,1.247,1.2459,1.2702,1.2702,1.2839,1.284,1.2841]},{"header":{"parameterUnit":"m.s-1","parameterCategory":1,"la1":30.2991,"la2":30.254,"lo1":-89.0895,"lo2":-89.0444,"dy":0.0017,"dx":0.0017,"nx":28,"ny":28,"refTime":"2023-07-18T09:00:00:Z","depth":0,"parameterNumber":3,"parameterNumberName":"V-component_of_WINDS"},"data":[0,0,0,0,0,0,0,0,0,0,0,0,0,0,0,0,0,0,0,0,0,0,0,0,0,0,0,0,0,0,0,0,0,0,0,0,0,0,0,0,0,0,0,0,0,0,0,0,0,0,0,0,0,0,0,0,0,0,0.4061,0.406,0,0.3997,0.3997,0.3996,0.394,0.3939,0.3939,0.3938,0.3869,0.3868,0.3867,0,0,0,0,0,0,0,0,0,0,0,0,0,0.4131,0.413,0.4061,0.406,0.406,0.3998,0.3997,0.3996,0.394,0.3939,0.3939,0.3938,0.387,0.3868,0.3867,0,0,0,0,0,0,0,0,0,0,0,0,0,0.4087,0.413,0.4061,0.4024,0.4021,0.3998,0.3997,0.3995,0.394,0.3939,0.3938,0.3938,0.387,0.3868,0.3867,0.3874,0,0,0.3861,0.386,0,0,0,0,0,0,0,0,0.409,0.4085,0.4031,0.4027,0.4023,0.3976,0.3996,0.3955,0.3941,0.3971,0.3938,0.3937,0.3905,0.3901,0.3891,0.3871,0.3868,0.3861,0.386,0.3859,0.3858,0,0,0,0,0,0,0,0.4093,0.4087,0.4036,0.403,0.4025,0.401,0.4003,0.3988,0.3944,0.3968,0.3964,0.3957,0.3903,0.3892,0.3888,0.3867,0.3861,0.3859,0.3858,0.3857,0.3849,0.385,0,0,0,0,0,0,0.4102,0.409,0.4038,0.4034,0.4055,0.4009,0.4001,0.3992,0.3944,0.3936,0.3958,0.3955,0.3896,0.3891,0.3886,0.3891,0.3859,0.3857,0.3856,0.3848,0.3849,0.385,0,0,0,0,0,0,0.4104,0.4098,0.404,0.4061,0.4052,0.4009,0.3999,0.3991,0.398,0.3937,0.3928,0.3956,0.3895,0.3888,0.3877,0.3887,0.3856,0.3855,0.3847,0.3848,0.3849,0.3901,0,0,0,0,0,0,0.4106,0.4099,0.4102,0.4061,0.4052,0.4034,0.4,0.399,0.3978,0.3973,0.3932,0.3924,0.3894,0.388,0.3876,0.3884,0.3853,0.3846,0.3847,0.3849,0.3898,0.3904,0.3909,0,0,0,0,0,0.4109,0.4119,0.4103,0.4097,0.4055,0.4035,0.4029,0.3995,0.3979,0.3981,0.3953,0.3926,0.3887,0.388,0.3874,0.3882,0.3845,0.3847,0.3849,0.3896,0.3903,0.3909,0,0,0,0,0,0,0.4161,0.4113,0.4095,0.4092,0.4068,0.4026,0.4028,0.4004,0.3983,0.3979,0.3936,0.3928,0.3921,0.39,0.3893,0.3886,0.3862,0.3863,0.39,0.3906,0.3912,0.3916,0.3852,0,0,0,0,0,0.4173,0.4162,0.412,0.4121,0.411,0.4071,0.4061,0.4037,0.401,0.3999,0.397,0.3944,0.3926,0.3915,0.3896,0.3895,0.3884,0.3897,0.3903,0.3907,0.3908,0.3905,0.391,0.3856,0.3856,0.3856,0,0,0.4196,0.4168,0.4164,0.4131,0.411,0.4098,0.4063,0.4052,0.4043,0.3997,0.3985,0.3963,0.3931,0.3925,0.392,0.3907,0.3921,0.391,0.3914,0.3912,0.3908,0.3913,0.3917,0.3858,0.3857,0.3857,0,0,0.4232,0.421,0.4209,0.4188,0.4157,0.4131,0.4131,0.4092,0.4075,0.4063,0.4028,0.4016,0.3986,0.3964,0.3949,0.3977,0.395,0.3971,0.3999,0.3996,0.4,0.4004,0.4013,0.4017,0.3973,0.3973,0.3973,0,0.4264,0.4246,0.4211,0.4202,0.4188,0.4148,0.4145,0.4127,0.409,0.4081,0.4067,0.4028,0.4004,0.3991,0.3998,0.3988,0.3985,0.3976,0.4003,0.4006,0.4009,0.4017,0.402,0.3976,0.3975,0.3975,0.3975,0,0.4287,0.4275,0.4278,0.4245,0.4231,0.4226,0.4188,0.4178,0.4155,0.413,0.4117,0.4086,0.406,0.4055,0.4032,0.4039,0.4032,0.4011,0.3986,0.4017,0.4024,0.4027,0.398,0.3979,0.3978,0.3977,0,0,0.4354,0.4302,0.4303,0.4287,0.4249,0.4239,0.4231,0.4206,0.4198,0.4174,0.4166,0.4141,0.4121,0.4105,0.4078,0.4076,0.4099,0.4055,0.4054,0.4064,0.4103,0.4119,0.4123,0.4081,0.4082,0.4082,0.4106,0,0.4383,0.4368,0.4336,0.433,0.4318,0.4279,0.4272,0.4247,0.4223,0.4208,0.4181,0.4165,0.414,0.413,0.4126,0.4097,0.4106,0.4095,0.4071,0.4071,0.408,0.4126,0.4143,0.4166,0.4108,0.4108,0.4109,0,0.4415,0.4395,0.4389,0.4351,0.4344,0.4339,0.4313,0.43,0.427,0.4253,0.4235,0.4206,0.4194,0.4172,0.4154,0.4147,0.4135,0.412,0.412,0.4115,0.4091,0.4123,0.4173,0.4177,0.4113,0.4112,0.4112,0,0.4464,0.4435,0.4427,0.4414,0.437,0.4367,0.4348,0.4318,0.4305,0.4282,0.4273,0.4249,0.4235,0.4217,0.4182,0.4169,0.4167,0.4142,0.4151,0.4152,0.4152,0.4153,0.4201,0.4146,0.4146,0.4146,0.4146,0,0.45,0.4497,0.4448,0.4443,0.4438,0.4401,0.4396,0.4374,0.4347,0.4336,0.4301,0.4291,0.4246,0.423,0.4203,0.4191,0.4185,0.417,0.4163,0.4173,0.4175,0.4164,0.4161,0.4147,0.4147,0.4147,0.4147,0,0.4553,0.452,0.4509,0.4468,0.4458,0.4456,0.4421,0.4414,0.4388,0.4374,0.4369,0.4328,0.4308,0.4271,0.424,0.4222,0.4216,0.4203,0.4226,0.4221,0.4232,0.4231,0.4275,0.4278,0.4223,0.4223,0.4224,0,0.4578,0.4575,0.4534,0.4525,0.4508,0.4493,0.448,0.4442,0.4429,0.4395,0.4392,0.4369,0.4349,0.4318,0.4285,0.426,0.4247,0.4264,0.4243,0.4253,0.4246,0.4246,0.4245,0.4268,0.4269,0.427,0.427,0,0.4624,0.4608,0.4591,0.4568,0.4554,0.4533,0.4511,0.4505,0.4462,0.4449,0.4429,0.4413,0.4382,0.4359,0.433,0.4309,0.4282,0.4277,0.4278,0.4288,0.4301,0.4293,0.4238,0.4276,0.4276,0.4275,0.4275,0.4275,0.4663,0.4658,0.4629,0.4611,0.4591,0.4571,0.4562,0.4535,0.4518,0.449,0.4469,0.445,0.4419,0.4378,0.4358,0.4341,0.4329,0.433,0.433,0.4331,0.4335,0.4304,0.4336,0.4336,0.4336,0.4335,0.4335,0,0.4707,0.4687,0.467,0.4641,0.4626,0.4604,0.4578,0.4566,0.4551,0.4525,0.4506,0.4482,0.4459,0.4424,0.4399,0.4392,0.4379,0.4387,0.4386,0.4382,0.4348,0.4349,0.4398,0.4398,0.4398,0.4398,0.4398,0.4398,0.4729,0.4719,0.47,0.4679,0.4658,0.464,0.4627,0.4608,0.4587,0.4562,0.4544,0.4522,0.4492,0.4464,0.4442,0.4432,0.4423,0.4435,0.4421,0.439,0.4384,0.4379,0.438,0.4434,0.4434,0.4456,0.4456,0.4457]}]]